"Period start","avg(HW err(1)/warn(2) (#))","avg(Visibility (m))","avg(Weather code (#))","avg(Precip intensity (mm/h))","min(HW err(1)/warn(2) (#))","max(HW err(1)/warn(2) (#))","std(HW err(1)/warn(2) (#))","med(HW err(1)/warn(2) (#))","min(Visibility (m))","max(Visibility (m))","std(Visibility (m))","med(Visibility (m))","min(Weather code (#))","max(Weather code (#))","std(Weather code (#))","med(Weather code (#))","min(Precip intensity (mm/h))","max(Precip intensity (mm/h))","std(Precip intensity (mm/h))","med(Precip intensity (mm/h))"
2016-06-20 00:00:00,2,25191,0,0.00,2,2,0,2,14130,35202,6487,25670,0,0,0,0,0.00,0.00,0.00,0.00
2016-06-20 00:10:00,2,23808,0,0.00,2,2,0,2,13791,36765,8483,24432,0,0,0,0,0.00,0.00,0.00,0.00
2016-06-20 00:20:00,2,16994,0,0.00,2,2,0,2,11053,31940,5661,15846,0,0,0,0,0.00,0.00,0.00,0.00
2016-06-20 00:30:00,2,21928,0,0.00,2,2,0,2,14612,33138,6899,19741,0,0,0,0,0.00,0.00,0.00,0.00
2016-06-20 00:40:00,2,24439,0,0.00,2,2,0,2,15838,33401,5635,25795,0,0,0,0,0.00,0.00,0.00,0.00
2016-06-20 00:50:00,2,19232,0,0.00,2,2,0,2,13086,25862,4205,18250,0,0,0,0,0.00,0.00,0.00,0.00
2016-06-20 01:00:00,2,37173,0,0.00,2,2,0,2,18303,50000,10587,40494,0,0,0,0,0.00,0.00,0.00,0.00
2016-06-20 01:10:00,2,27535,0,0.00,2,2,0,2,13936,34644,6015,28404,0,0,0,0,0.00,0.00,0.00,0.00
2016-06-20 01:20:00,2,21186,13,0.02,2,2,0,2,14401,39358,7107,19765,0,51,20,0,0.00,0.15,0.05,0.00
2016-06-20 01:30:00,2,23544,5,0.00,2,2,0,2,14468,36055,7556,20603,0,51,15,0,0.00,0.00,0.00,0.00
2016-06-20 01:40:00,2,12728,0,0.00,2,2,0,2,10346,16562,1784,12851,0,0,0,0,0.00,0.00,0.00,0.00
2016-06-20 01:50:00,2,13115,0,0.00,2,2,0,2,8659,18433,3179,12979,0,0,0,0,0.00,0.00,0.00,0.00
2016-06-20 02:00:00,2,11626,36,0.27,2,2,0,2,9106,15371,1986,11024,0,51,19,40,0.00,0.75,0.23,0.28
2016-06-20 02:10:00,2,13093,26,0.06,2,2,0,2,8170,15952,2282,13202,0,51,26,26,0.00,0.15,0.07,0.00
2016-06-20 02:20:00,2,21868,24,0.03,2,2,0,2,13857,37912,7333,21134,0,61,30,0,0.00,0.15,0.05,0.00
2016-06-20 02:30:00,2,28944,0,0.00,2,2,0,2,19653,44962,8385,26693,0,0,0,0,0.00,0.00,0.00,0.00
2016-06-20 02:40:00,2,17552,0,0.00,2,2,0,2,12149,24083,3722,16722,0,0,0,0,0.00,0.00,0.00,0.00
2016-06-20 02:50:00,2,10865,0,0.00,2,2,0,2,8982,12520,1204,10362,0,0,0,0,0.00,0.00,0.00,0.00
2016-06-20 03:00:00,2,22012,0,0.00,2,2,0,2,12977,32910,6566,20722,0,0,0,0,0.00,0.00,0.00,0.00
2016-06-20 03:10:00,2,32042,33,0.12,2,2,0,2,21888,42137,6634,34776,0,51,22,41,0.00,0.55,0.16,0.05
2016-06-20 03:20:00,2,33572,18,0.02,2,2,0,2,22281,43466,6878,34732,0,61,28,0,0.00,0.10,0.03,0.00
2016-06-20 03:30:00,2,41951,0,0.00,2,2,0,2,37019,50000,4838,40783,0,0,0,0,0.00,0.00,0.00,0.00
2016-06-20 03:40:00,2,48133,0,0.00,2,2,0,2,43483,50000,2158,49146,0,0,0,0,0.00,0.00,0.00,0.00
2016-06-20 03:50:00,2,49498,0,0.00,2,2,0,2,46586,50000,1083,50000,0,0,0,0,0.00,0.00,0.00,0.00
2016-06-20 04:00:00,2,49172,0,0.00,2,2,0,2,46566,50000,1303,50000,0,0,0,0,0.00,0.00,0.00,0.00
2016-06-20 04:10:00,2,47564,0,0.00,2,2,0,2,37123,50000,4823,50000,0,0,0,0,0.00,0.00,0.00,0.00
2016-06-20 04:20:00,2,47208,0,0.00,2,2,0,2,42042,50000,3030,48026,0,0,0,0,0.00,0.00,0.00,0.00
2016-06-20 04:30:00,2,47854,0,0.00,2,2,0,2,41764,50000,3025,49430,0,0,0,0,0.00,0.00,0.00,0.00
2016-06-20 04:40:00,2,44012,0,0.00,2,2,0,2,29441,50000,8109,48958,0,0,0,0,0.00,0.00,0.00,0.00
2016-06-20 04:50:00,2,23631,0,0.00,2,2,0,2,15178,31541,5260,23221,0,0,0,0,0.00,0.00,0.00,0.00
2016-06-20 05:00:00,2,24528,0,0.00,2,2,0,2,11412,39852,8354,25094,0,0,0,0,0.00,0.00,0.00,0.00
2016-06-20 05:10:00,2,14588,0,0.00,2,2,0,2,10884,21867,3234,14740,0,0,0,0,0.00,0.00,0.00,0.00
2016-06-20 05:20:00,2,15472,34,0.06,2,2,0,2,8821,24375,4890,14329,0,51,22,46,0.00,0.20,0.08,0.00
2016-06-20 05:30:00,2,36318,0,0.00,2,2,0,2,21167,49559,8555,37798,0,0,0,0,0.00,0.00,0.00,0.00
2016-06-20 05:40:00,2,46498,0,0.00,2,2,0,2,39750,50000,4035,48780,0,0,0,0,0.00,0.00,0.00,0.00
2016-06-20 05:50:00,2,44755,0,0.00,2,2,0,2,39705,50000,3761,43682,0,0,0,0,0.00,0.00,0.00,0.00
2016-06-20 06:00:00,2,45721,0,0.00,2,2,0,2,36928,50000,4896,48696,0,0,0,0,0.00,0.00,0.00,0.00
2016-06-20 06:10:00,2,49248,0,0.00,2,2,0,2,47293,50000,918,49812,0,0,0,0,0.00,0.00,0.00,0.00
2016-06-20 06:20:00,2,46106,0,0.00,2,2,0,2,33170,50000,5132,48041,0,0,0,0,0.00,0.00,0.00,0.00
2016-06-20 06:30:00,2,44506,0,0.00,2,2,0,2,37406,50000,4632,45270,0,0,0,0,0.00,0.00,0.00,0.00
2016-06-20 06:40:00,2,48214,0,0.00,2,2,0,2,39128,50000,3372,50000,0,0,0,0,0.00,0.00,0.00,0.00
2016-06-20 06:50:00,2,50000,0,0.00,2,2,0,2,50000,50000,0,50000,0,0,0,0,0.00,0.00,0.00,0.00
2016-06-20 07:00:00,2,50000,0,0.00,2,2,0,2,50000,50000,0,50000,0,0,0,0,0.00,0.00,0.00,0.00
2016-06-20 07:10:00,2,49289,0,0.00,2,2,0,2,44934,50000,1574,50000,0,0,0,0,0.00,0.00,0.00,0.00
2016-06-20 07:20:00,2,48517,0,0.00,2,2,0,2,43534,50000,2383,50000,0,0,0,0,0.00,0.00,0.00,0.00
2016-06-20 07:30:00,2,49668,0,0.00,2,2,0,2,48226,50000,571,50000,0,0,0,0,0.00,0.00,0.00,0.00
2016-06-20 07:40:00,2,48274,0,0.00,2,2,0,2,44106,50000,2022,49130,0,0,0,0,0.00,0.00,0.00,0.00
2016-06-20 07:50:00,2,47395,0,0.00,2,2,0,2,39134,50000,3470,49634,0,0,0,0,0.00,0.00,0.00,0.00
2016-06-20 08:00:00,2,49695,0,0.00,2,2,0,2,48370,50000,612,50000,0,0,0,0,0.00,0.00,0.00,0.00
2016-06-20 08:10:00,2,49846,0,0.00,2,2,0,2,48677,50000,395,50000,0,0,0,0,0.00,0.00,0.00,0.00
2016-06-20 08:20:00,2,45333,0,0.00,2,2,0,2,32765,50000,6674,49094,0,0,0,0,0.00,0.00,0.00,0.00
2016-06-20 08:30:00,2,49644,0,0.00,2,2,0,2,47352,50000,811,50000,0,0,0,0,0.00,0.00,0.00,0.00
2016-06-20 08:40:00,2,49938,0,0.00,2,2,0,2,49621,50000,128,50000,0,0,0,0,0.00,0.00,0.00,0.00
2016-06-20 08:50:00,2,49512,0,0.00,0,2,1,2,46132,50000,1166,50000,0,0,0,0,0.00,0.00,0.00,0.00
2016-06-20 09:00:00,0,49601,0,0.00,0,0,0,0,46902,50000,938,50000,0,0,0,0,0.00,0.00,0.00,0.00
2016-06-20 09:10:00,1,49772,0,0.00,0,2,1,0,47953,50000,610,50000,0,0,0,0,0.00,0.00,0.00,0.00
2016-06-20 09:20:00,1,50000,0,0.00,0,2,1,2,50000,50000,0,50000,0,0,0,0,0.00,0.00,0.00,0.00
2016-06-20 09:30:00,2,48968,0,0.00,0,2,1,2,45024,50000,1615,50000,0,0,0,0,0.00,0.00,0.00,0.00
2016-06-20 09:40:00,2,49982,0,0.00,2,2,0,2,49818,50000,55,50000,0,0,0,0,0.00,0.00,0.00,0.00
2016-06-20 09:50:00,2,49846,0,0.00,0,2,1,2,48455,50000,464,50000,0,0,0,0,0.00,0.00,0.00,0.00
2016-06-20 10:00:00,0,49736,0,0.00,0,2,1,0,48606,50000,529,50000,0,0,0,0,0.00,0.00,0.00,0.00
2016-06-20 10:10:00,2,50000,0,0.00,2,2,0,2,50000,50000,0,50000,0,0,0,0,0.00,0.00,0.00,0.00
2016-06-20 10:20:00,0,49406,0,0.00,0,2,1,0,46903,50000,1189,50000,0,0,0,0,0.00,0.00,0.00,0.00
2016-06-20 10:30:00,1,48444,0,0.00,0,2,1,0,38228,50000,3588,50000,0,0,0,0,0.00,0.00,0.00,0.00
2016-06-20 10:40:00,2,49933,0,0.00,2,2,0,2,49331,50000,201,50000,0,0,0,0,0.00,0.00,0.00,0.00
2016-06-20 10:50:00,2,49957,0,0.00,2,2,0,2,49566,50000,130,50000,0,0,0,0,0.00,0.00,0.00,0.00
2016-06-20 11:00:00,2,49825,0,0.00,2,2,0,2,48317,50000,503,50000,0,0,0,0,0.00,0.00,0.00,0.00
2016-06-20 11:10:00,1,50000,0,0.00,0,2,1,0,50000,50000,0,50000,0,0,0,0,0.00,0.00,0.00,0.00
2016-06-20 11:20:00,0,50000,0,0.00,0,0,0,0,50000,50000,0,50000,0,0,0,0,0.00,0.00,0.00,0.00
2016-06-20 11:30:00,0,50000,0,0.00,0,0,0,0,50000,50000,0,50000,0,0,0,0,0.00,0.00,0.00,0.00
2016-06-20 11:40:00,0,49765,0,0.00,0,0,0,0,48663,50000,476,50000,0,0,0,0,0.00,0.00,0.00,0.00
2016-06-20 11:50:00,0,50000,0,0.00,0,0,0,0,50000,50000,0,50000,0,0,0,0,0.00,0.00,0.00,0.00
2016-06-20 12:00:00,0,50000,0,0.00,0,0,0,0,50000,50000,0,50000,0,0,0,0,0.00,0.00,0.00,0.00
2016-06-20 12:10:00,0,50000,0,0.00,0,0,0,0,50000,50000,0,50000,0,0,0,0,0.00,0.00,0.00,0.00
2016-06-20 12:20:00,0,50000,0,0.00,0,0,0,0,50000,50000,0,50000,0,0,0,0,0.00,0.00,0.00,0.00
2016-06-20 12:30:00,0,50000,0,0.00,0,0,0,0,50000,50000,0,50000,0,0,0,0,0.00,0.00,0.00,0.00
2016-06-20 12:40:00,0,50000,0,0.00,0,0,0,0,50000,50000,0,50000,0,0,0,0,0.00,0.00,0.00,0.00
2016-06-20 12:50:00,0,50000,0,0.00,0,0,0,0,50000,50000,0,50000,0,0,0,0,0.00,0.00,0.00,0.00
2016-06-20 13:00:00,0,50000,0,0.00,0,0,0,0,50000,50000,0,50000,0,0,0,0,0.00,0.00,0.00,0.00
2016-06-20 13:10:00,0,49904,0,0.00,0,0,0,0,49037,50000,289,50000,0,0,0,0,0.00,0.00,0.00,0.00
2016-06-20 13:20:00,0,49873,0,0.00,0,0,0,0,49281,50000,257,50000,0,0,0,0,0.00,0.00,0.00,0.00
2016-06-20 13:30:00,0,50000,0,0.00,0,0,0,0,50000,50000,0,50000,0,0,0,0,0.00,0.00,0.00,0.00
2016-06-20 13:40:00,0,50000,0,0.00,0,0,0,0,50000,50000,0,50000,0,0,0,0,0.00,0.00,0.00,0.00
2016-06-20 13:50:00,0,50000,0,0.00,0,0,0,0,50000,50000,0,50000,0,0,0,0,0.00,0.00,0.00,0.00
2016-06-20 14:00:00,0,50000,0,0.00,0,0,0,0,50000,50000,0,50000,0,0,0,0,0.00,0.00,0.00,0.00
2016-06-20 14:10:00,0,50000,0,0.00,0,0,0,0,50000,50000,0,50000,0,0,0,0,0.00,0.00,0.00,0.00
2016-06-20 14:20:00,0,50000,0,0.00,0,0,0,0,50000,50000,0,50000,0,0,0,0,0.00,0.00,0.00,0.00
2016-06-20 14:30:00,0,50000,0,0.00,0,0,0,0,50000,50000,0,50000,0,0,0,0,0.00,0.00,0.00,0.00
2016-06-20 14:40:00,0,50000,0,0.00,0,2,1,0,50000,50000,0,50000,0,0,0,0,0.00,0.00,0.00,0.00
2016-06-20 14:50:00,2,50000,0,0.00,2,2,0,2,50000,50000,0,50000,0,0,0,0,0.00,0.00,0.00,0.00
2016-06-20 15:00:00,2,50000,0,0.00,2,2,0,2,50000,50000,0,50000,0,0,0,0,0.00,0.00,0.00,0.00
2016-06-20 15:10:00,2,50000,0,0.00,2,2,0,2,50000,50000,0,50000,0,0,0,0,0.00,0.00,0.00,0.00
2016-06-20 15:20:00,2,50000,0,0.00,2,2,0,2,50000,50000,0,50000,0,0,0,0,0.00,0.00,0.00,0.00
2016-06-20 15:30:00,0,49775,0,0.00,0,2,1,0,47753,50000,674,50000,0,0,0,0,0.00,0.00,0.00,0.00
2016-06-20 15:40:00,0,50000,0,0.00,0,0,0,0,50000,50000,0,50000,0,0,0,0,0.00,0.00,0.00,0.00
2016-06-20 15:50:00,0,50000,0,0.00,0,0,0,0,50000,50000,0,50000,0,0,0,0,0.00,0.00,0.00,0.00
2016-06-20 16:00:00,1,49711,0,0.00,0,2,1,0,47110,50000,867,50000,0,0,0,0,0.00,0.00,0.00,0.00
2016-06-20 16:10:00,2,49479,0,0.00,2,2,0,2,45876,50000,1244,50000,0,0,0,0,0.00,0.00,0.00,0.00
2016-06-20 16:20:00,2,50000,0,0.00,0,2,1,2,50000,50000,0,50000,0,0,0,0,0.00,0.00,0.00,0.00
2016-06-20 16:30:00,2,49964,0,0.00,2,2,0,2,49645,50000,106,50000,0,0,0,0,0.00,0.00,0.00,0.00
2016-06-20 16:40:00,2,50000,0,0.00,2,2,0,2,50000,50000,0,50000,0,0,0,0,0.00,0.00,0.00,0.00
2016-06-20 16:50:00,2,49950,0,0.00,2,2,0,2,49501,50000,150,50000,0,0,0,0,0.00,0.00,0.00,0.00
2016-06-20 17:00:00,2,50000,0,0.00,2,2,0,2,50000,50000,0,50000,0,0,0,0,0.00,0.00,0.00,0.00
2016-06-20 17:10:00,2,50000,0,0.00,2,2,0,2,50000,50000,0,50000,0,0,0,0,0.00,0.00,0.00,0.00
2016-06-20 17:20:00,2,50000,0,0.00,2,2,0,2,50000,50000,0,50000,0,0,0,0,0.00,0.00,0.00,0.00
2016-06-20 17:30:00,2,50000,0,0.00,2,2,0,2,50000,50000,0,50000,0,0,0,0,0.00,0.00,0.00,0.00
2016-06-20 17:40:00,2,50000,0,0.00,2,2,0,2,50000,50000,0,50000,0,0,0,0,0.00,0.00,0.00,0.00
2016-06-20 17:50:00,2,50000,0,0.00,2,2,0,2,50000,50000,0,50000,0,0,0,0,0.00,0.00,0.00,0.00
2016-06-20 18:00:00,2,50000,0,0.00,2,2,0,2,50000,50000,0,50000,0,0,0,0,0.00,0.00,0.00,0.00
2016-06-20 18:10:00,2,50000,0,0.00,2,2,0,2,50000,50000,0,50000,0,0,0,0,0.00,0.00,0.00,0.00
2016-06-20 18:20:00,2,50000,0,0.00,2,2,0,2,50000,50000,0,50000,0,0,0,0,0.00,0.00,0.00,0.00
2016-06-20 18:30:00,2,50000,0,0.00,2,2,0,2,50000,50000,0,50000,0,0,0,0,0.00,0.00,0.00,0.00
2016-06-20 18:40:00,2,49969,0,0.00,2,2,0,2,49691,50000,93,50000,0,0,0,0,0.00,0.00,0.00,0.00
2016-06-20 18:50:00,2,49501,0,0.00,2,2,0,2,47153,50000,858,50000,0,0,0,0,0.00,0.00,0.00,0.00
2016-06-20 19:00:00,2,49248,0,0.00,2,2,0,2,43158,50000,2040,50000,0,0,0,0,0.00,0.00,0.00,0.00
2016-06-20 19:10:00,2,49969,0,0.00,2,2,0,2,49687,50000,94,50000,0,0,0,0,0.00,0.00,0.00,0.00
2016-06-20 19:20:00,2,49847,0,0.00,2,2,0,2,48466,50000,460,50000,0,0,0,0,0.00,0.00,0.00,0.00
2016-06-20 19:30:00,2,50000,0,0.00,2,2,0,2,50000,50000,0,50000,0,0,0,0,0.00,0.00,0.00,0.00
2016-06-20 19:40:00,2,49931,0,0.00,2,2,0,2,49306,50000,208,50000,0,0,0,0,0.00,0.00,0.00,0.00
2016-06-20 19:50:00,2,49568,0,0.00,2,2,0,2,46388,50000,1072,50000,0,0,0,0,0.00,0.00,0.00,0.00
2016-06-20 20:00:00,2,48626,0,0.00,2,2,0,2,40791,50000,2738,50000,0,0,0,0,0.00,0.00,0.00,0.00
2016-06-20 20:10:00,2,49358,0,0.00,2,2,0,2,45479,50000,1348,50000,0,0,0,0,0.00,0.00,0.00,0.00
2016-06-20 20:20:00,2,49839,0,0.00,2,2,0,2,48390,50000,483,50000,0,0,0,0,0.00,0.00,0.00,0.00
2016-06-20 20:30:00,2,49465,0,0.00,2,2,0,2,47177,50000,953,50000,0,0,0,0,0.00,0.00,0.00,0.00
2016-06-20 20:40:00,2,49904,0,0.00,2,2,0,2,49042,50000,287,50000,0,0,0,0,0.00,0.00,0.00,0.00
2016-06-20 20:50:00,2,49620,0,0.00,2,2,0,2,48136,50000,642,50000,0,0,0,0,0.00,0.00,0.00,0.00
2016-06-20 21:00:00,2,49713,0,0.00,2,2,0,2,47429,50000,767,50000,0,0,0,0,0.00,0.00,0.00,0.00
2016-06-20 21:10:00,2,47821,0,0.00,2,2,0,2,40313,50000,3019,49355,0,0,0,0,0.00,0.00,0.00,0.00
2016-06-20 21:20:00,2,48460,0,0.00,2,2,0,2,39947,50000,3255,50000,0,0,0,0,0.00,0.00,0.00,0.00
2016-06-20 21:30:00,2,47186,0,0.00,2,2,0,2,41039,50000,3614,50000,0,0,0,0,0.00,0.00,0.00,0.00
2016-06-20 21:40:00,2,45598,0,0.00,2,2,0,2,41913,50000,2964,45064,0,0,0,0,0.00,0.00,0.00,0.00
2016-06-20 21:50:00,2,48875,0,0.00,2,2,0,2,43481,50000,2025,50000,0,0,0,0,0.00,0.00,0.00,0.00
2016-06-20 22:00:00,2,48478,0,0.00,2,2,0,2,38852,50000,3394,50000,0,0,0,0,0.00,0.00,0.00,0.00
2016-06-20 22:10:00,2,44775,0,0.00,2,2,0,2,36165,50000,4842,47002,0,0,0,0,0.00,0.00,0.00,0.00
2016-06-20 22:20:00,2,47001,0,0.00,2,2,0,2,38464,50000,4112,48752,0,0,0,0,0.00,0.00,0.00,0.00
2016-06-20 22:30:00,2,47151,0,0.00,2,2,0,2,36379,50000,4195,49612,0,0,0,0,0.00,0.00,0.00,0.00
2016-06-20 22:40:00,2,43692,0,0.00,2,2,0,2,31095,50000,6129,45561,0,0,0,0,0.00,0.00,0.00,0.00
2016-06-20 22:50:00,2,38661,0,0.00,2,2,0,2,27203,50000,7215,36905,0,0,0,0,0.00,0.00,0.00,0.00
2016-06-20 23:00:00,2,44490,0,0.00,2,2,0,2,35288,50000,5301,46992,0,0,0,0,0.00,0.00,0.00,0.00
2016-06-20 23:10:00,2,46344,0,0.00,2,2,0,2,40141,50000,3777,47456,0,0,0,0,0.00,0.00,0.00,0.00
2016-06-20 23:20:00,2,36104,0,0.00,2,2,0,2,27013,49121,7562,34462,0,0,0,0,0.00,0.00,0.00,0.00
2016-06-20 23:30:00,2,41153,0,0.00,2,2,0,2,25494,50000,8854,40604,0,0,0,0,0.00,0.00,0.00,0.00
2016-06-20 23:40:00,2,38737,0,0.00,2,2,0,2,24906,50000,8349,39036,0,0,0,0,0.00,0.00,0.00,0.00
2016-06-20 23:50:00,2,44697,0,0.00,2,2,0,2,34051,50000,6099,48570,0,0,0,0,0.00,0.00,0.00,0.00
